#timestamp,LO_Frequency,Hit,StdDev 
1552881615.1,286046998.7,N
1552881635.9,286046998.5,N
1552881655.7,286046998.3,N
1552881675.5,286046999.4,N
1552881695.3,286046999.1,N
1552881715.2,286046999.5,N
1552881735.0,286046999.6,N
1552881735.9,286046999.6,N
1552881755.7,286046999.6,N
1552881775.6,286046999.3,N
1552881795.4,286046999.5,N
1552881815.2,286046999.5,N
1552881835.1,286046999.2,N
1552881836.0,286046999.2,N
1552881855.8,286046998.3,N
1552881875.6,286046999.4,N
1552881895.5,286046999.4,N
1552881915.3,286046999.4,N
1552881935.1,286046999.1,N
1552881955.8,286046999.4,N
1552881975.7,286046998.9,N
1552881995.5,286046998.8,N
1552882015.3,286046998.8,N
1552882035.2,286046998.9,N
1552882055.0,286046999.0,N
1552882055.9,286046999.0,N
1552882075.7,286047001.2,N
1552882095.6,286046998.5,N
1552882115.4,286047001.1,N
1552882135.2,286047000.8,N
1552882155.1,286047001.0,N
1552882156.0,286047001.0,N
1552882175.8,286047000.8,N
1552882195.6,286047000.3,N
1552882215.5,286047000.7,N
1552882235.3,286047000.9,N
1552882255.1,286047000.1,N
1552882275.9,286046999.8,N
1552882295.7,286047000.6,N
1552882315.5,286047000.4,N
1552882335.4,286047002.8,Y
1552882355.2,286047002.7,P
1552882375.0,286047002.3,N
1552882375.9,286047002.3,N
1552882395.8,286047002.2,N
1552882415.6,286047001.5,N
1552882435.4,286047001.9,N
1552882455.2,286047001.8,N
1552882475.1,286047004.3,Y
1552882476.0,286047004.3,P
1552882495.8,286047000.2,N
1552882515.7,286047000.4,N
1552882535.5,286046999.8,N
1552882555.3,286047000.2,N
1552882575.1,286047000.5,N
1552882595.9,286047000.2,N
1552882615.7,286047000.5,N
1552882635.5,286047000.0,N
1552882655.4,286047000.2,N
1552882675.2,286047000.5,N
1552882695.0,286047000.3,N
1552882695.9,286047000.3,N
1552882715.8,286047002.7,N
1552882735.6,286047002.3,N
1552882755.4,286047002.7,N
1552882775.3,286047002.6,N
1552882795.1,286047002.5,N
1552882796.0,286047002.5,N
1552882815.8,286047001.8,N
1552882835.6,286047001.4,N
1552882855.5,286047004.3,Y
1552882875.3,286047002.7,P
1552882895.2,286046999.7,N
1552882915.9,286046999.7,N
1552882935.7,286047000.1,N
1552882955.5,286047002.8,N
1552882975.4,286047002.8,N
1552882995.2,286047002.7,N
1552883015.0,286047002.7,N
1552883015.9,286047002.7,N
1552883035.8,286047002.2,N
1552883055.6,286047002.2,N
1552883075.4,286047001.5,N
1552883095.3,286047002.5,N
1552883115.1,286047002.5,N
1552883116.0,286047002.5,N
1552883135.8,286047001.5,N
1552883155.7,286047001.6,N
1552883175.5,286047002.3,N
1552883195.3,286047002.6,N
1552883215.1,286047001.5,N
1552883235.9,286047002.1,N
1552883255.7,286047002.1,N
1552883275.5,286047002.0,N
1552883295.4,286047002.0,N
1552883315.2,286047002.2,N
1552883335.0,286047002.0,N
1552883335.9,286047002.0,N
1552883355.8,286047001.6,N
1552883375.6,286047001.8,N
1552883395.4,286047001.7,N
1552883415.3,286047001.8,N
1552883435.1,286047002.5,Y
1552883455.8,286047000.0,P
1552883475.7,286047000.2,N
1552883495.5,286047002.8,P
1552883515.3,286047000.4,N
1552883535.2,286046999.9,N
1552883555.9,286047002.8,N
1552883575.7,286047002.1,N
1552883595.5,286047001.6,N
1552883615.4,286047001.4,N
1552883635.2,286047004.4,Y
1552883655.0,286047002.4,P
1552883656.0,286047002.4,P
1552883675.8,286047002.2,P
1552883695.6,286047001.4,Y
1552883715.5,286047000.3,P
1552883735.3,286047000.2,N
1552883755.1,286046999.7,N
1552883775.8,286047002.7,N
1552883795.7,286047002.6,N
1552883815.5,286047002.1,N
1552883835.3,286047002.1,N
1552883855.2,286047002.2,N
1552883875.0,286047002.8,N
1552883875.9,286047002.8,N
1552883895.7,286047002.2,N
1552883915.6,286047002.1,N
1552883935.4,286047002.0,N
1552883955.2,286047002.3,N
1552883975.1,286047001.6,N
1552883976.0,286047001.6,N
1552883995.8,286047001.8,N
1552884015.6,286047001.4,N
1552884035.5,286047004.4,Y
1552884055.3,286046999.7,P
1552884075.1,286047000.3,N
1552884095.9,286046999.8,N
1552884115.7,286047002.3,N
1552884135.5,286047002.6,N
1552884155.3,286047002.1,N
1552884175.2,286047001.5,N
1552884195.0,286047001.7,N
1552884195.9,286047001.7,N
1552884215.7,286047001.4,N
1552884235.6,286047003.8,Y
1552884255.4,286047002.6,P
1552884275.2,286047002.1,P
1552884295.1,286047002.5,P
1552884296.0,286047002.5,Y
1552884315.8,286047001.2,P
1552884335.6,286046999.8,N
1552884355.5,286047002.6,N
1552884375.3,286047002.0,N
1552884395.1,286047002.2,N
1552884415.9,286047004.4,Y
1552884435.7,286047002.6,P
1552884455.5,286047002.4,P
1552884475.4,286047001.8,P
1552884495.2,286047002.0,Y
1552884515.0,286046999.8,P
1552884515.9,286046999.8,N
1552884535.8,286047002.4,N
1552884555.6,286047002.5,N
1552884575.4,286046999.7,N
1552884595.3,286047001.6,N
1552884615.1,286047002.5,N
1552884635.8,286047001.6,N
1552884655.7,286047001.5,N
1552884675.5,286047004.1,Y
1552884695.3,286047001.5,P
1552884715.2,286047001.7,P
1552884735.9,286047001.5,P
1552884755.7,286047001.7,Y
1552884775.6,286047001.5,P
1552884795.4,286047002.8,P
1552884815.2,286047002.4,P
1552884835.1,286047002.1,Y
1552884836.0,286047002.1,P
1552884855.8,286047000.3,P
1552884875.6,286046999.9,N
1552884895.5,286046999.8,N
1552884915.3,286046999.9,N
1552884935.1,286047002.6,N
1552884955.9,286047002.8,N
1552884975.7,286047001.5,N
1552884995.5,286047001.7,N
1552885015.4,286047001.4,N
1552885035.2,286047001.7,N
1552885055.0,286047001.4,N
1552885055.9,286047001.4,N
1552885075.7,286047002.0,N
1552885095.6,286047001.8,N
1552885115.4,286047001.7,N
1552885135.2,286047001.8,N
1552885155.1,286047001.6,N
1552885156.0,286047001.6,N
1552885175.8,286047002.3,N
1552885195.6,286047001.9,N
